Orbital Elements at Epoch 2459000.5 (2020-May-31.0) TDB
Reference: JPL 15 (heliocentric ecliptic J2000)
Element | Value | Uncertainty (1-sigma) | Units |
e | .1534501052864451 | 3.807e-08 | |
a | 2.691746895928876 | 1.1003e-08 | au |
q | 2.278698051344128 | 1.0578e-07 | au |
i | 2.460358856976408 | 3.6896e-06 | deg |
node | 268.9552640825273 | 0.00012233 | deg |
peri | 163.0985034586388 | 0.00012376 | deg |
M | 299.2150919215944 | 1.703e-05 | deg |
tp | 2459272.859809495434 (2021-Feb-27.35980950) | 7.6209e-05 | TDB |
period | 1613.057163661145 4.42 | 9.8904e-06 2.708e-08 | d yr |
n | .2231786994968675 | 1.3684e-09 | deg/d |
Q | 3.104795740513624 | 1.2691e-08 | au |
|
| | Orbit Determination Parameters
Additional Information
|